Temp
7 7 7 7 7 7 7 7 7 8 8 9 9 9 9 9 9 9 9 9 9 9 10 10 10 11 11 11 11 12 12 12 12 12 13 12 12 12
5 5 5 5 5 6 6 6 6 7 7 8 8 8 8 8 8 9 9 9 9 10 10 10 10 11 11 11 11 11 11 11 11 11 11 11 11 12
4 5 5 5 4 4 4 5 5 6 6 7 7 7 7 7 8 9 9 9 9 9 9 10 10 11 11 11 11 10 10 11 11 10 10 10 10 11
4 4 4 4 3 3 3 3 4 5 5 5 6 6 7 7 8 8 9 9 9 9 9 9 10 10 11 11 11 11 11 11 11 11 10 10 10 10
4 3 3 3 3 3 3 3 4 5 5 5 5 6 6 6 7 8 8 9 9 9 9 9 10 10 10 11 11 11 10 10 11 10 10 10 10 10
3 3 3 2 2 2 3 3 4 4 4 4 5 5 6 6 7 7 7 8 8 8 9 10 10 10 10 10 10 9 9 9 9 9 9 9 9 10
3 3 2 2 2 2 3 3 3 3 3 4 4 5 6 6 6 6 7 7 7 8 8 9 9 10 9 9 9 9 9 10 10 9 9 9 9 10
2 2 2 2 3 3 3 3 3 3 3 3 3 4 4 5 5 5 6 5 6 7 6 6 7 8 9 7 7 7 7 9 10 9 9 10 10 10
3 2 2 2 2 2 2 2 2 2 2 2 2 3 3 3 2 3 4 4 4 5 4 5 6 6 8 8 7 8 7 7 8 9 9 9 10 11
3 3 2 2 2 1 1 1 1 1 0 0 1 1 1 1 2 1 1 1 1 3 3 4 5 6 7 7 6 6 6 5 6 7 9 8 9 9
3 3 2 2 2 1 1 1 1 0 0 -0 -0 -0 -1 0 0 0 -0 0 1 3 2 1 3 4 5 6 5 4 5 5 5 5 7 9 8 8
3 3 3 2 1 1 1 1 1 0 -0 -0 -1 -1 -1 -1 -1 -1 -2 -2 -1 0 -0 -0 1 1 2 4 4 3 4 3 4 3 4 5 8 7
2 2 3 3 2 1 1 1 1 0 -0 -1 -1 -1 -1 -2 -2 -2 -2 -3 -3 -2 -1 -1 -1 -0 0 1 2 2 2 2 2 3 3 4 4 6
1 1 2 2 2 0 0 -0 0 0 0 -0 -1 -1 -2 -2 -2 -3 -3 -3 -3 -3 -3 -3 -3 -2 -2 -1 0 1 1 1 1 1 1 1 2 2
2 2 2 2 2 -0 -0 0 0 -0 -0 -1 -2 -2 -2 -3 -3 -3 -3 -3 -3 -3 -3 -3 -3 -3 -3 -2 -2 -1 -1 -0 -1 -1 -0 -0 0 1
2 2 1 1 1 1 -0 -0 -1 -1 -1 -1 -2 -2 -3 -3 -4 -4 -4 -4 -4 -2 -2 -2 -2 -3 -3 -3 -3 -3 -3 -2 -2 -2 -2 -1 -1 -1
1 0 0 0 -0 -0 -0 -1 -1 -1 -2 -2 -3 -3 -4 -4 -4 -4 -4 -4 -4 -4 -3 -2 -3 -3 -3 -3 -4 -3 -4 -3 -2 -3 -2 -3 -1 -2
1 -1 -2 -2 -2 -1 -2 -2 -1 -2 -2 -2 -3 -4 -4 -5 -5 -4 -5 -5 -5 -4 -4 -3 -3 -3 -2 -2 -3 -3 -4 -3 -3 -3 -3 -4 -4 -2
1 1 -1 -2 -2 -2 -2 -2 -2 -1 -1 -2 -3 -4 -4 -5 -5 -5 -5 -5 -5 -4 -4 -3 -3 -4 -6 -5 -2 -3 -3 -3 -3 -3 -3 -3 -3 -3
1 0 0 -1 -2 -2 -3 -3 -2 -2 -3 -3 -4 -4 -5 -6 -6 -6 -6 -6 -5 -4 -4 -4 -4 -4 -5 -6 -6 -2 -3 -3 -4 -3 -3 -3 -4 -3
-0 -0 0 -1 -1 -2 -3 -3 -3 -2 -2 -3 -4 -4 -5 -6 -6 -6 -6 -5 -4 -5 -5 -4 -4 -4 -4 -4 -5 -4 -3 -3 -3 -4 -4 -4 -5 -4
-1 -0 -1 -1 -1 -2 -3 -3 -3 -3 -3 -4 -4 -5 -5 -6 -6 -6 -6 -6 -6 -6 -5 -5 -4 -4 -4 -4 -4 -4 -4 -3 -4 -4 -4 -4 -4 -7
-1 -1 -1 -1 -1 -2 -2 -3 -3 -3 -4 -3 -4 -5 -6 -6 -6 -6 -6 -6 -6 -6 -6 -5 -5 -4 -5 -4 -4 -4 -4 -4 -4 -4 -4 -4 -4 -3
Height
759 759 758 757 756 755 753 752 748 741 735 733 733 732 731 730 727 726 724 722 720 719 717 716 714 712 711 709 708 707 706 705 704 703 703 703 705 706
756 756 755 754 753 752 750 747 745 742 735 731 729 728 727 725 724 722 720 718 716 713 711 709 707 705 703 702 701 699 698 697 696 695 695 695 695 695
753 752 751 751 749 748 747 745 742 740 734 727 728 726 722 721 719 717 715 713 711 709 707 704 702 699 696 694 693 691 690 689 688 687 686 685 684 683
749 748 747 747 745 744 742 740 738 737 733 725 723 722 719 717 715 713 711 708 706 704 702 699 696 693 690 688 686 684 682 680 679 677 675 673 671 671
744 743 742 741 739 738 737 735 733 731 730 725 718 717 715 712 708 707 704 702 700 698 697 694 691 689 687 683 681 679 675 673 671 668 665 661 658 657
739 738 737 736 734 733 732 731 729 726 723 721 717 713 711 707 704 702 699 698 695 693 690 689 687 685 683 680 677 674 670 665 663 659 655 651 647 643
734 733 732 731 730 729 728 726 725 722 721 718 715 712 708 704 702 700 697 694 691 689 686 684 683 681 679 676 672 669 665 658 654 649 643 635 630 629
729 729 728 726 724 723 723 722 721 719 717 715 712 708 705 702 700 698 693 692 689 687 684 680 681 675 673 672 668 663 661 655 649 643 633 615 614 616
723 722 721 720 719 719 718 717 716 715 714 712 709 706 702 700 698 695 693 691 687 685 683 677 675 671 668 666 664 658 657 653 649 641 632 621 615 611
717 715 715 714 713 713 712 711 710 710 709 707 706 703 701 698 696 693 691 688 685 681 679 673 670 665 664 661 660 656 652 651 647 641 635 628 622 618
711 710 709 708 708 708 707 705 704 703 703 702 701 699 697 695 693 690 688 686 681 678 675 671 667 662 658 655 655 653 650 649 645 641 635 631 628 623
702 701 701 701 701 702 702 700 697 696 696 695 695 694 692 690 689 687 686 685 683 677 674 673 666 665 657 652 651 652 647 647 644 641 638 634 631 630
693 691 691 693 694 695 696 695 693 693 692 692 690 689 686 686 686 684 683 682 681 678 675 674 669 668 661 655 652 650 647 646 645 642 638 635 633 630
686 684 684 686 687 687 688 687 688 688 687 686 687 684 682 683 682 680 679 677 677 674 672 672 671 668 664 659 655 649 647 645 645 644 641 639 637 635
681 678 678 678 679 679 681 682 682 681 680 681 680 678 679 678 677 676 675 673 672 670 667 667 667 665 663 662 657 652 649 645 644 644 643 641 640 638
673 671 670 671 671 672 673 674 675 674 674 675 673 672 674 673 673 673 672 670 668 665 664 663 663 661 660 659 655 651 649 648 643 642 642 641 640 639
669 666 664 663 663 664 664 665 667 667 667 668 668 667 668 669 669 670 669 667 665 663 661 661 659 658 656 654 652 649 644 645 643 642 640 639 638 637
661 658 657 656 655 655 656 656 657 659 660 661 662 663 663 665 666 666 665 664 661 660 659 657 656 654 651 649 648 646 643 644 642 641 639 639 636 635
651 650 648 648 648 648 648 649 649 651 653 654 655 657 659 662 662 661 661 660 658 657 656 655 653 652 652 651 646 645 643 642 641 640 639 638 636 633
644 640 639 638 638 639 640 641 643 644 645 647 650 652 655 657 657 657 657 656 655 654 653 651 650 650 650 649 647 643 642 641 639 638 638 636 634 631
638 633 630 629 629 629 630 632 633 635 637 641 643 646 650 651 652 653 654 654 652 652 651 649 648 648 647 646 644 642 640 638 638 637 636 637 633 632
630 625 622 620 619 619 621 622 624 627 631 634 637 641 644 646 648 649 650 650 650 650 648 646 645 644 644 643 642 640 638 636 636 635 635 636 635 635
622 617 614 612 611 610 612 614 616 620 623 627 631 635 639 641 644 645 646 646 646 646 645 644 643 642 641 640 639 638 637 636 634 634 634 634 634 634
Wind_Speed
15 16 16 16 14 17 17 15 11 7 9 8 11 10 20 19 19 23 21 20 20 20 19 19 21 23 25 25 27 29 31 32 33 34 34 35 30 30
13 11 12 11 13 15 17 15 14 13 8 13 17 20 21 25 24 26 22 22 22 21 20 21 22 23 24 25 26 29 32 33 33 34 32 32 32 31
13 13 15 15 16 16 17 15 15 14 11 21 18 21 23 25 24 22 21 22 23 20 20 23 25 25 24 26 28 29 30 31 33 33 35 37 40 41
18 17 17 17 20 19 16 17 16 17 16 16 22 21 21 20 23 24 23 21 21 21 23 26 23 19 21 23 24 25 27 29 32 34 37 39 41 45
17 16 18 19 19 16 14 15 16 15 17 18 21 21 18 22 24 25 21 23 19 21 25 27 18 20 25 23 24 27 28 29 31 35 38 41 43 45
16 17 18 17 17 15 14 16 15 15 16 16 17 20 20 21 20 19 18 19 21 24 26 21 23 26 30 25 25 25 24 26 32 36 40 41 45 46
18 18 17 16 15 15 16 16 14 13 14 14 15 17 16 14 14 17 20 22 19 22 19 23 21 32 30 23 21 22 26 29 30 29 38 51 50 48
22 20 18 17 15 14 15 16 15 14 13 12 14 13 16 17 20 18 10 8 6 15 12 28 29 31 25 21 19 24 25 26 25 28 34 26 25 36
23 23 21 19 15 16 17 16 16 15 14 15 16 13 11 12 19 16 15 14 14 21 20 20 22 28 21 17 22 23 24 20 21 23 25 17 7 13
25 24 24 23 18 16 18 19 17 16 17 17 16 19 19 19 18 16 18 20 23 25 20 8 18 18 22 22 20 19 21 18 17 18 22 19 9 5
28 27 25 25 20 15 17 19 19 19 18 15 15 16 17 15 14 16 14 10 6 9 5 4 8 16 24 21 16 14 16 16 15 16 16 16 14 9
30 28 24 23 20 17 19 20 19 22 19 18 16 18 17 15 12 12 12 10 8 6 3 9 6 7 5 4 6 9 8 11 12 11 13 12 11 9
29 28 28 22 20 18 18 21 24 21 19 19 18 18 16 13 13 12 11 11 11 11 13 13 9 10 5 6 9 9 9 10 11 11 11 12 10 7
29 30 30 24 20 18 18 19 18 18 20 19 20 19 17 15 14 13 13 14 16 19 21 17 8 9 7 5 5 9 11 8 9 10 9 8 7 7
30 34 32 28 23 20 19 18 17 19 20 21 23 21 18 15 14 14 12 12 14 16 16 13 13 13 11 10 9 10 10 6 9 8 9 8 8 6
23 28 29 28 25 24 22 20 19 19 20 23 22 18 16 14 13 13 13 11 13 12 8 10 12 11 15 17 15 15 13 6 11 11 11 8 7 6
26 21 24 25 23 25 26 26 23 19 20 21 19 16 15 14 13 12 12 11 10 9 12 9 9 12 16 19 13 12 10 8 8 9 11 13 7 6
27 20 19 19 21 21 21 22 22 19 22 20 18 17 15 14 14 12 10 10 12 14 13 12 10 11 8 8 11 11 8 7 5 8 11 8 11 8
25 23 19 20 20 19 20 22 21 22 20 19 18 16 15 15 11 10 12 10 11 12 13 11 10 8 1 2 6 9 8 4 9 9 10 12 15 21
22 22 22 21 22 22 21 24 24 20 18 18 17 16 15 15 13 13 11 10 11 13 15 10 8 9 4 3 2 6 8 12 9 9 13 14 17 12
23 24 25 23 23 23 25 25 23 19 20 20 18 17 16 14 14 12 11 10 11 7 7 10 10 9 11 9 4 7 10 8 8 11 11 9 6 6
25 24 25 26 26 26 24 25 23 20 20 20 19 18 15 14 14 12 11 10 9 9 11 11 9 9 9 8 6 9 7 7 8 10 11 12 6 1
27 25 25 26 27 26 25 24 23 22 23 21 19 18 16 16 14 11 10 10 10 10 9 8 8 7 10 9 10 5 6 8 3 2 2 2 5 9
Wind_Direction
297 296 293 291 291 294 295 295 285 301 300 290 284 308 316 316 317 325 325 326 320 318 311 305 303 300 295 293 284 279 276 275 274 276 276 271 269 262
289 290 300 300 305 296 290 286 283 285 287 302 296 300 303 304 308 315 316 321 322 322 322 321 315 306 297 295 292 286 280 275 275 272 271 271 271 270
286 286 279 288 294 288 289 290 288 283 287 298 302 308 303 304 306 308 312 316 321 324 322 319 315 311 301 298 295 294 285 279 278 272 269 271 269 270
286 287 280 287 294 296 293 286 286 286 287 296 299 301 297 299 302 304 303 306 313 317 322 324 321 326 318 311 303 298 293 284 280 276 279 277 270 272
280 278 280 288 289 290 290 290 288 284 283 284 294 299 293 303 301 298 298 306 308 317 322 324 317 322 331 321 311 306 300 289 282 279 278 277 274 270
277 279 283 284 284 283 282 289 291 288 281 277 287 294 293 294 293 293 304 308 307 316 317 314 314 317 318 315 313 306 299 293 285 284 283 278 275 268
276 280 284 283 277 272 275 282 295 299 297 298 297 299 301 305 309 303 300 300 308 316 313 305 313 312 315 308 312 319 329 313 298 299 295 287 273 269
280 282 286 284 275 266 268 273 281 290 294 293 292 292 299 298 292 290 296 307 307 314 316 305 306 305 310 298 306 316 323 335 314 304 316 310 280 266
274 274 278 281 276 265 272 274 275 279 281 292 288 288 310 308 314 308 298 289 278 285 298 290 294 294 301 289 299 307 316 320 333 335 337 352 289 306
272 271 274 278 277 270 275 279 276 280 282 290 281 292 298 302 297 290 292 293 291 290 285 271 284 271 290 289 288 297 309 329 327 335 348 349 16 57
277 276 274 273 274 261 263 269 275 275 289 290 281 285 298 294 291 294 294 301 296 291 279 295 283 297 293 283 281 293 302 308 332 345 349 349 4 19
279 278 274 267 269 260 255 258 266 272 291 294 289 293 303 295 288 281 290 288 290 290 316 331 317 322 309 287 304 309 331 325 326 347 360 360 347 12
271 272 277 272 261 255 255 258 265 283 287 284 284 295 307 297 291 289 285 275 274 262 278 328 304 303 261 301 308 317 333 336 334 331 338 349 1 356
265 270 276 275 264 251 253 255 259 270 272 277 279 289 300 298 295 293 289 283 284 273 283 286 272 301 315 297 272 314 328 330 332 333 342 347 350 5
266 269 273 273 263 252 252 255 258 263 268 271 268 282 291 294 292 290 290 292 290 287 279 268 268 280 299 280 293 305 330 314 324 330 335 338 336 334
282 264 257 260 256 256 256 253 253 262 260 261 266 279 285 290 287 285 289 296 301 305 275 277 274 276 284 289 294 288 292 292 321 328 328 323 317 318
292 281 260 246 243 243 247 254 260 260 247 250 259 267 277 285 279 278 278 285 275 281 293 284 286 280 284 284 277 278 302 289 308 321 338 331 336 341
272 253 252 244 240 240 238 246 254 248 246 251 254 258 265 269 271 280 282 277 278 286 291 295 299 307 301 283 260 269 277 286 319 315 330 322 310 334
266 261 244 242 244 239 237 242 246 252 249 245 248 252 255 258 261 266 278 286 289 287 287 292 294 289 297 269 292 257 260 292 321 316 319 307 302 309
272 251 246 239 237 237 236 243 249 249 240 235 238 242 244 248 253 259 266 274 280 285 293 283 274 270 241 238 260 289 276 274 286 302 307 301 305 314
276 253 246 243 240 231 233 241 247 245 238 229 232 238 237 238 246 255 262 265 268 273 273 282 286 279 281 290 277 270 291 274 275 294 295 302 310 327
278 267 254 244 239 229 229 237 246 238 228 222 228 233 230 229 236 246 251 252 262 270 277 289 289 279 269 251 262 274 280 289 270 271 269 262 259 262
280 272 264 253 240 231 229 234 240 236 225 222 223 222 217 219 229 240 245 250 259 266 276 285 293 285 265 257 268 255 279 301 301 315 205 240 256 265